Location: Montclair
(37.8322°N, 122.2092°W)
Time: 15:41:47
(UTC+00:00)

USA 215 - Pass Details

Date: 08 September 2024
Orbit: 1099 x 1108 km, 123.0° (Epoch: 25 September)

Event Time Altitude Azimuth Distance (km) Brightness Sun altitude
Rises 12:59:56 0° 139° (SE) 3,902 6.5 -9.6°
Reaches altitude 10° 13:02:25 10° 141° (SE) 2,946 5.9 -9.2°
Maximum altitude 13:08:55 76° 226° (SW) 1,132 3.3 -7.9°
Drops below altitude 10° 13:15:27 10° 312° (NW) 2,958 5.2 -6.6°
Sets 13:17:57 0° 314° (NW) 3,918 5.8 -6.2°
